﻿測定場所 (Monitoring sites),日付 (Measurement date),時間 (Measurement time),線量率 最大値 (max) μGy/h,線量率 最小値 (min) μGy/h,線量率 平均値 (average) μGy/h,
調布 (Chofu),2020-04-19,23:01～24:00,0.0280,0.0245,0.0263,
調布 (Chofu),2020-04-19,22:01～23:00,0.0294,0.0241,0.0264,
調布 (Chofu),2020-04-19,21:01～22:00,0.0281,0.0243,0.0262,
調布 (Chofu),2020-04-19,20:01～21:00,0.0281,0.0235,0.0262,
調布 (Chofu),2020-04-19,19:01～20:00,0.0282,0.0249,0.0264,
調布 (Chofu),2020-04-19,18:01～19:00,0.0290,0.0241,0.0264,
調布 (Chofu),2020-04-19,17:01～18:00,0.0286,0.0239,0.0264,
調布 (Chofu),2020-04-19,16:01～17:00,0.0279,0.0245,0.0261,
調布 (Chofu),2020-04-19,15:01～16:00,0.0279,0.0243,0.0263,
調布 (Chofu),2020-04-19,14:01～15:00,0.0281,0.0246,0.0261,
調布 (Chofu),2020-04-19,13:01～14:00,0.0286,0.0243,0.0264,
調布 (Chofu),2020-04-19,12:01～13:00,0.0279,0.0244,0.0262,
調布 (Chofu),2020-04-19,11:01～12:00,0.0284,0.0246,0.0263,
調布 (Chofu),2020-04-19,10:01～11:00,0.0281,0.0244,0.0264,
調布 (Chofu),2020-04-19,09:01～10:00,0.0300,0.0250,0.0268,
調布 (Chofu),2020-04-19,08:01～09:00,0.0286,0.0248,0.0267,
調布 (Chofu),2020-04-19,07:01～08:00,0.0291,0.0249,0.0273,
調布 (Chofu),2020-04-19,06:01～07:00,0.0300,0.0266,0.0283,
調布 (Chofu),2020-04-19,05:01～06:00,0.0302,0.0260,0.0282,
調布 (Chofu),2020-04-19,04:01～05:00,0.0302,0.0255,0.0281,
調布 (Chofu),2020-04-19,03:01～04:00,0.0304,0.0261,0.0283,
調布 (Chofu),2020-04-19,02:01～03:00,0.0306,0.0260,0.0279,
調布 (Chofu),2020-04-19,01:01～02:00,0.0297,0.0257,0.0278,
調布 (Chofu),2020-04-19,00:01～01:00,0.0295,0.0261,0.0277,
調布 (Chofu),2020-04-18,23:01～24:00,0.0295,0.0251,0.0274,
調布 (Chofu),2020-04-18,22:01～23:00,0.0288,0.0253,0.0269,
調布 (Chofu),2020-04-18,21:01～22:00,0.0287,0.0253,0.0269,
調布 (Chofu),2020-04-18,20:01～21:00,0.0288,0.0249,0.0266,
調布 (Chofu),2020-04-18,19:01～20:00,0.0286,0.0248,0.0266,
調布 (Chofu),2020-04-18,18:01～19:00,0.0280,0.0252,0.0265,
調布 (Chofu),2020-04-18,17:01～18:00,0.0295,0.0251,0.0272,
調布 (Chofu),2020-04-18,16:01～17:00,0.0310,0.0258,0.0283,
調布 (Chofu),2020-04-18,15:01～16:00,0.0357,0.0299,0.0323,
調布 (Chofu),2020-04-18,14:01～15:00,0.0428,0.0339,0.0373,
調布 (Chofu),2020-04-18,13:01～14:00,0.0428,0.0345,0.0383,
調布 (Chofu),2020-04-18,12:01～13:00,0.0441,0.0370,0.0399,
調布 (Chofu),2020-04-18,11:01～12:00,0.0442,0.0377,0.0406,
調布 (Chofu),2020-04-18,10:01～11:00,0.0448,0.0372,0.0415,
調布 (Chofu),2020-04-18,09:01～10:00,0.0427,0.0367,0.0398,
調布 (Chofu),2020-04-18,08:01～09:00,0.0430,0.0357,0.0389,
調布 (Chofu),2020-04-18,07:01～08:00,0.0400,0.0346,0.0371,
調布 (Chofu),2020-04-18,06:01～07:00,0.0382,0.0339,0.0361,
調布 (Chofu),2020-04-18,05:01～06:00,0.0383,0.0339,0.0360,
調布 (Chofu),2020-04-18,04:01～05:00,0.0374,0.0331,0.0357,
調布 (Chofu),2020-04-18,03:01～04:00,0.0390,0.0328,0.0357,
調布 (Chofu),2020-04-18,02:01～03:00,0.0381,0.0334,0.0356,
調布 (Chofu),2020-04-18,01:01～02:00,0.0364,0.0316,0.0341,
調布 (Chofu),2020-04-18,00:01～01:00,0.0342,0.0275,0.0311,
調布 (Chofu),2020-04-17,23:01～24:00,0.0305,0.0256,0.0282,
調布 (Chofu),2020-04-17,22:01～23:00,0.0286,0.0250,0.0269,
調布 (Chofu),2020-04-17,21:01～22:00,0.0291,0.0245,0.0268,
調布 (Chofu),2020-04-17,20:01～21:00,0.0285,0.0255,0.0269,
調布 (Chofu),2020-04-17,19:01～20:00,0.0283,0.0248,0.0269,
調布 (Chofu),2020-04-17,18:01～19:00,0.0290,0.0250,0.0268,
調布 (Chofu),2020-04-17,17:01～18:00,0.0288,0.0252,0.0268,
調布 (Chofu),2020-04-17,16:01～17:00,0.0291,0.0239,0.0269,
調布 (Chofu),2020-04-17,15:01～16:00,0.0288,0.0250,0.0268,
調布 (Chofu),2020-04-17,14:01～15:00,0.0289,0.0250,0.0269,
調布 (Chofu),2020-04-17,13:01～14:00,0.0284,0.0255,0.0269,
調布 (Chofu),2020-04-17,12:01～13:00,0.0290,0.0249,0.0271,
調布 (Chofu),2020-04-17,11:01～12:00,0.0288,0.0249,0.0270,
調布 (Chofu),2020-04-17,10:01～11:00,0.0282,0.0249,0.0269,
調布 (Chofu),2020-04-17,09:01～10:00,0.0287,0.0251,0.0270,
調布 (Chofu),2020-04-17,08:01～09:00,0.0288,0.0250,0.0269,
調布 (Chofu),2020-04-17,07:01～08:00,0.0291,0.0252,0.0269,
調布 (Chofu),2020-04-17,06:01～07:00,0.0284,0.0249,0.0267,
調布 (Chofu),2020-04-17,05:01～06:00,0.0289,0.0247,0.0268,
調布 (Chofu),2020-04-17,04:01～05:00,0.0288,0.0251,0.0269,
調布 (Chofu),2020-04-17,03:01～04:00,0.0281,0.0249,0.0266,
調布 (Chofu),2020-04-17,02:01～03:00,0.0289,0.0251,0.0269,
調布 (Chofu),2020-04-17,01:01～02:00,0.0291,0.0251,0.0268,
調布 (Chofu),2020-04-17,00:01～01:00,0.0285,0.0251,0.0266,
調布 (Chofu),2020-04-16,23:01～24:00,0.0289,0.0249,0.0268,
調布 (Chofu),2020-04-16,22:01～23:00,0.0290,0.0253,0.0273,
調布 (Chofu),2020-04-16,21:01～22:00,0.0302,0.0255,0.0283,
調布 (Chofu),2020-04-16,20:01～21:00,0.0350,0.0274,0.0311,
調布 (Chofu),2020-04-16,19:01～20:00,0.0360,0.0310,0.0335,
調布 (Chofu),2020-04-16,18:01～19:00,0.0386,0.0288,0.0345,
調布 (Chofu),2020-04-16,17:01～18:00,0.0314,0.0263,0.0290,
調布 (Chofu),2020-04-16,16:01～17:00,0.0290,0.0250,0.0270,
調布 (Chofu),2020-04-16,15:01～16:00,0.0282,0.0251,0.0269,
調布 (Chofu),2020-04-16,14:01～15:00,0.0294,0.0252,0.0270,
調布 (Chofu),2020-04-16,13:01～14:00,0.0289,0.0253,0.0269,
調布 (Chofu),2020-04-16,12:01～13:00,0.0292,0.0252,0.0269,
調布 (Chofu),2020-04-16,11:01～12:00,0.0287,0.0254,0.0272,
調布 (Chofu),2020-04-16,10:01～11:00,0.0285,0.0253,0.0270,
調布 (Chofu),2020-04-16,09:01～10:00,0.0292,0.0247,0.0270,
調布 (Chofu),2020-04-16,08:01～09:00,0.0297,0.0252,0.0271,
調布 (Chofu),2020-04-16,07:01～08:00,0.0292,0.0253,0.0272,
調布 (Chofu),2020-04-16,06:01～07:00,0.0284,0.0249,0.0271,
調布 (Chofu),2020-04-16,05:01～06:00,0.0303,0.0248,0.0274,
調布 (Chofu),2020-04-16,04:01～05:00,0.0302,0.0258,0.0277,
調布 (Chofu),2020-04-16,03:01～04:00,0.0299,0.0261,0.0280,
調布 (Chofu),2020-04-16,02:01～03:00,0.0304,0.0262,0.0281,
調布 (Chofu),2020-04-16,01:01～02:00,0.0299,0.0255,0.0281,
調布 (Chofu),2020-04-16,00:01～01:00,0.0297,0.0259,0.0278,
調布 (Chofu),2020-04-15,23:01～24:00,0.0294,0.0256,0.0278,
調布 (Chofu),2020-04-15,22:01～23:00,0.0294,0.0252,0.0273,
調布 (Chofu),2020-04-15,21:01～22:00,0.0282,0.0252,0.0268,
調布 (Chofu),2020-04-15,20:01～21:00,0.0285,0.0255,0.0268,
調布 (Chofu),2020-04-15,19:01～20:00,0.0286,0.0253,0.0270,
調布 (Chofu),2020-04-15,18:01～19:00,0.0286,0.0253,0.0269,
調布 (Chofu),2020-04-15,17:01～18:00,0.0285,0.0250,0.0265,
調布 (Chofu),2020-04-15,16:01～17:00,0.0287,0.0249,0.0267,
調布 (Chofu),2020-04-15,15:01～16:00,0.0286,0.0255,0.0267,
調布 (Chofu),2020-04-15,14:01～15:00,0.0291,0.0249,0.0267,
調布 (Chofu),2020-04-15,13:01～14:00,0.0287,0.0238,0.0266,
調布 (Chofu),2020-04-15,12:01～13:00,0.0291,0.0249,0.0268,
調布 (Chofu),2020-04-15,11:01～12:00,0.0288,0.0245,0.0267,
調布 (Chofu),2020-04-15,10:01～11:00,0.0288,0.0254,0.0272,
調布 (Chofu),2020-04-15,09:01～10:00,0.0292,0.0253,0.0273,
調布 (Chofu),2020-04-15,08:01～09:00,0.0288,0.0257,0.0275,
調布 (Chofu),2020-04-15,07:01～08:00,0.0296,0.0262,0.0279,
調布 (Chofu),2020-04-15,06:01～07:00,0.0293,0.0262,0.0278,
調布 (Chofu),2020-04-15,05:01～06:00,0.0307,0.0259,0.0277,
調布 (Chofu),2020-04-15,04:01～05:00,0.0297,0.0250,0.0275,
調布 (Chofu),2020-04-15,03:01～04:00,0.0294,0.0260,0.0277,
調布 (Chofu),2020-04-15,02:01～03:00,0.0291,0.0248,0.0269,
調布 (Chofu),2020-04-15,01:01～02:00,0.0281,0.0244,0.0270,
調布 (Chofu),2020-04-15,00:01～01:00,0.0284,0.0248,0.0267,
調布 (Chofu),2020-04-14,23:01～24:00,0.0289,0.0249,0.0269,
調布 (Chofu),2020-04-14,22:01～23:00,0.0289,0.0251,0.0268,
調布 (Chofu),2020-04-14,21:01～22:00,0.0285,0.0250,0.0268,
調布 (Chofu),2020-04-14,20:01～21:00,0.0293,0.0252,0.0268,
調布 (Chofu),2020-04-14,19:01～20:00,0.0282,0.0248,0.0265,
調布 (Chofu),2020-04-14,18:01～19:00,0.0286,0.0233,0.0265,
調布 (Chofu),2020-04-14,17:01～18:00,0.0285,0.0244,0.0263,
調布 (Chofu),2020-04-14,16:01～17:00,0.0279,0.0247,0.0262,
調布 (Chofu),2020-04-14,15:01～16:00,0.0280,0.0242,0.0265,
調布 (Chofu),2020-04-14,14:01～15:00,0.0285,0.0248,0.0266,
調布 (Chofu),2020-04-14,13:01～14:00,0.0292,0.0239,0.0266,
調布 (Chofu),2020-04-14,12:01～13:00,0.0289,0.0249,0.0264,
調布 (Chofu),2020-04-14,11:01～12:00,0.0287,0.0249,0.0268,
調布 (Chofu),2020-04-14,10:01～11:00,0.0285,0.0250,0.0267,
調布 (Chofu),2020-04-14,09:01～10:00,0.0282,0.0250,0.0265,
調布 (Chofu),2020-04-14,08:01～09:00,0.0288,0.0246,0.0268,
調布 (Chofu),2020-04-14,07:01～08:00,0.0288,0.0243,0.0268,
調布 (Chofu),2020-04-14,06:01～07:00,0.0283,0.0250,0.0268,
調布 (Chofu),2020-04-14,05:01～06:00,0.0295,0.0247,0.0268,
調布 (Chofu),2020-04-14,04:01～05:00,0.0289,0.0247,0.0271,
調布 (Chofu),2020-04-14,03:01～04:00,0.0288,0.0257,0.0272,
調布 (Chofu),2020-04-14,02:01～03:00,0.0296,0.0261,0.0279,
調布 (Chofu),2020-04-14,01:01～02:00,0.0339,0.0282,0.0307,
調布 (Chofu),2020-04-14,00:01～01:00,0.0353,0.0301,0.0318,
調布 (Chofu),2020-04-13,23:01～24:00,0.0380,0.0319,0.0349,
調布 (Chofu),2020-04-13,22:01～23:00,0.0393,0.0344,0.0366,
調布 (Chofu),2020-04-13,21:01～22:00,0.0408,0.0354,0.0368,
調布 (Chofu),2020-04-13,20:01～21:00,0.0403,0.0356,0.0372,
調布 (Chofu),2020-04-13,19:01～20:00,0.0411,0.0356,0.0375,
調布 (Chofu),2020-04-13,18:01～19:00,0.0418,0.0356,0.0377,
調布 (Chofu),2020-04-13,17:01～18:00,0.0430,0.0363,0.0398,
調布 (Chofu),2020-04-13,16:01～17:00,0.0477,0.0389,0.0434,
調布 (Chofu),2020-04-13,15:01～16:00,0.0508,0.0438,0.0474,
調布 (Chofu),2020-04-13,14:01～15:00,0.0503,0.0410,0.0466,
調布 (Chofu),2020-04-13,13:01～14:00,0.0472,0.0402,0.0440,
調布 (Chofu),2020-04-13,12:01～13:00,0.0451,0.0387,0.0416,
調布 (Chofu),2020-04-13,11:01～12:00,0.0457,0.0368,0.0397,
調布 (Chofu),2020-04-13,10:01～11:00,0.0457,0.0366,0.0409,
調布 (Chofu),2020-04-13,09:01～10:00,0.0471,0.0396,0.0435,
調布 (Chofu),2020-04-13,08:01～09:00,0.0428,0.0363,0.0401,
調布 (Chofu),2020-04-13,07:01～08:00,0.0436,0.0364,0.0390,
調布 (Chofu),2020-04-13,06:01～07:00,0.0416,0.0353,0.0373,
調布 (Chofu),2020-04-13,05:01～06:00,0.0423,0.0353,0.0383,
調布 (Chofu),2020-04-13,04:01～05:00,0.0430,0.0372,0.0401,
調布 (Chofu),2020-04-13,03:01～04:00,0.0419,0.0356,0.0388,
調布 (Chofu),2020-04-13,02:01～03:00,0.0432,0.0361,0.0394,
調布 (Chofu),2020-04-13,01:01～02:00,0.0400,0.0350,0.0368,
調布 (Chofu),2020-04-13,00:01～01:00,0.0408,0.0321,0.0354,
